Weather History for Middletown, OH

Change the Weather History Date:

Monday, January 28, 2013

  Actual Average (KDAY) Record (KDAY)
Temperature  
Mean Temperature 44 °F 28 °F  
Max Temperature 52 °F 35 °F 66 °F (1914)
Min Temperature 35 °F 20 °F -13 °F (1963)
Degree Days  
Heating Degree Days 22 37  
Month to date heating degree days 1053  
Since 1 July heating degree days 3212  
Cooling Degree Days 0 0  
Month to date cooling degree days 0  
Year to date cooling degree days 0  
Moisture  
Dew Point 47 °F    
Average Humidity 99    
Maximum Humidity 100    
Minimum Humidity 90    
Precipitation  
Precipitation 0.00 in 0.08 in 0.61 in (1916)
Month to date precipitation 2.47  
Year to date precipitation 2.47  
Snow  
Snow 0.00 in 0.20 in 3.80 in (2009)
Month to date snowfall 7.1  
Since 1 July snowfall 12.6  
Snow Depth -    
Sea Level Pressure  
Sea Level Pressure 30.09 in    
Wind  
Wind Speed 8 mph (SSW)    
Max Wind Speed 15 mph    
Max Gust Speed 21 mph    
Visibility 6 miles    
Events Rain , Snow    
T = Trace of Precipitation, MM = Missing Value Source: NWS Daily Summary

Daily Weather History Graph

Daily Weather History Graph

Search for Another Location

Airport:

Trip Planner

Search our weather history database for the weather conditions in past years. The results will help you decide how hot, cold, wet, or windy it might be!

Date:

Astronomy

Jan. 28, 2013 Rise Set
Actual Time 7:48 AM EST 5:53 PM EST
Civil Twilight 7:19 AM EST 6:21 PM EST
Nautical Twilight 6:47 AM EST 6:54 PM EST
Astronomical Twilight 6:15 AM EST 7:26 PM EST
Moon 7:46 PM EST (1/28) 8:14 AM EST (1/28)
Length of Visible Light 11h 02m
Length of Day
10h 04m
Full, 98% of the Moon is Illuminated
Jan 28
Full
Feb 3
Last Quarter
Feb 10
New
Feb 17
First Quarter
Feb 25
Full

Hourly Weather History & Observations

Time (EST) Temp. Windchill Dew Point Humidity Pressure Visibility Wind Dir Wind Speed Gust Speed Precip Events Conditions
12:15 AM 35.1 °F 31.0 °F 35.1 °F 100% 30.18 in 4.0 mi South 4.6 mph - N/A Snow Light Snow
12:35 AM 37.6 °F 31.6 °F 37.6 °F 100% 30.18 in 4.0 mi South 8.1 mph - N/A Snow Light Snow
12:55 AM 37.6 °F 31.6 °F 37.6 °F 100% 30.16 in 4.0 mi South 8.1 mph - N/A Snow Light Snow
1:15 AM 37.6 °F 31.0 °F 37.6 °F 100% 30.14 in 5.0 mi South 9.2 mph - N/A   Overcast
1:35 AM 37.6 °F 30.5 °F 37.6 °F 100% 30.15 in 7.0 mi South 10.4 mph - N/A   Overcast
1:55 AM 37.6 °F 31.6 °F 37.6 °F 100% 30.16 in 5.0 mi SSW 8.1 mph - N/A   Overcast
2:15 AM 37.6 °F 34.0 °F 37.6 °F 100% 30.16 in 3.0 mi SSW 4.6 mph - N/A   Overcast
2:35 AM 37.6 °F 34.0 °F 37.6 °F 100% 30.15 in 3.0 mi SSW 4.6 mph - N/A   Overcast
2:55 AM 37.6 °F 35.1 °F 37.6 °F 100% 30.15 in 3.0 mi SSW 3.5 mph - N/A   Overcast
3:15 AM 38.8 °F 33.2 °F 38.8 °F 100% 30.15 in 5.0 mi SSW 8.1 mph - N/A   Overcast
3:35 AM 40.1 °F 34.1 °F 40.1 °F 100% 30.13 in 7.0 mi SSW 9.2 mph - N/A   Overcast
3:55 AM 40.1 °F 34.1 °F 40.1 °F 100% 30.12 in 5.0 mi SSW 9.2 mph - N/A   Overcast
4:15 AM 40.3 °F 34.4 °F 40.3 °F 100% 30.12 in 5.0 mi SSW 9.2 mph - N/A   Overcast
4:35 AM 40.6 °F 34.8 °F 40.6 °F 100% 30.11 in 7.0 mi South 9.2 mph - N/A   Overcast
4:55 AM 41.4 °F 35.2 °F 41.4 °F 100% 30.10 in 7.0 mi SSW 10.4 mph - N/A   Overcast
5:15 AM 41.5 °F 35.4 °F 41.5 °F 100% 30.10 in 7.0 mi SSW 10.4 mph - N/A   Scattered Clouds
5:35 AM 41.9 °F 35.9 °F 41.9 °F 100% 30.09 in 7.0 mi SSW 10.4 mph - N/A   Clear
5:55 AM 42.8 °F 38.0 °F 42.8 °F 100% 30.09 in 10.0 mi SSW 8.1 mph - N/A   Mostly Cloudy
6:15 AM 42.8 °F 37.5 °F 42.8 °F 100% 30.08 in 10.0 mi SSW 9.2 mph - N/A   Mostly Cloudy
6:35 AM 44.1 °F 39.0 °F 43.9 °F 99% 30.08 in 10.0 mi South 9.2 mph - N/A   Overcast
6:55 AM 45.1 °F 41.4 °F 44.6 °F 98% 30.08 in 10.0 mi SSW 6.9 mph - N/A   Overcast
7:15 AM 42.8 °F 40.1 °F 42.1 °F 97% 30.08 in 10.0 mi South 4.6 mph - N/A   Mostly Cloudy
7:35 AM 45.1 °F 40.8 °F 44.1 °F 96% 30.07 in 10.0 mi SSW 8.1 mph - N/A   Mostly Cloudy
7:55 AM 47.7 °F - 45.5 °F 92% 30.07 in 10.0 mi SSW 10.4 mph 17.3 mph N/A   Mostly Cloudy
8:15 AM 47.7 °F - 44.8 °F 90% 30.07 in 10.0 mi SSW 11.5 mph 17.3 mph N/A   Mostly Cloudy
8:35 AM 47.7 °F - 45.5 °F 92% 30.08 in 7.0 mi SW 10.4 mph - N/A   Overcast
8:55 AM 47.7 °F - 46.8 °F 97% 30.11 in 1.2 mi West 8.1 mph - N/A   Unknown
9:15 AM 45.1 °F 40.3 °F 45.1 °F 100% 30.10 in 2.0 mi SW 9.2 mph - N/A   Unknown
9:35 AM 45.5 °F 40.3 °F 45.5 °F 100% 30.09 in 7.0 mi SW 10.4 mph - N/A   Overcast
10:15 AM 45.1 °F 40.8 °F 45.1 °F 100% 30.10 in 5.0 mi SSW 8.1 mph - N/A   Overcast
10:35 AM 47.5 °F - 47.5 °F 100% 30.10 in 5.0 mi SSW 8.1 mph - N/A   Unknown
10:55 AM 47.7 °F - 47.7 °F 100% 30.09 in 7.0 mi SSW 9.2 mph - N/A   Overcast
11:15 AM 47.7 °F - 47.7 °F 100% 30.10 in 5.0 mi SSW 10.4 mph - N/A   Unknown
11:35 AM 47.7 °F - 47.7 °F 100% 30.09 in 10.0 mi SSW 10.4 mph - N/A   Overcast
12:15 PM 47.7 °F - 47.5 °F 99% 30.09 in 10.0 mi SW 10.4 mph - N/A   Overcast
12:35 PM 48.6 °F - 48.4 °F 99% 30.08 in 7.0 mi SW 13.8 mph - N/A   Overcast
1:15 PM 49.6 °F - 49.6 °F 100% 30.07 in 3.0 mi SW 15.0 mph 20.7 mph N/A Rain Rain
1:35 PM 50.2 °F - 50.2 °F 100% 30.06 in 5.0 mi SW 10.4 mph - N/A Rain Light Rain
1:55 PM 50.2 °F - 50.2 °F 100% 30.05 in 5.0 mi SW 13.8 mph 18.4 mph N/A   Overcast
2:15 PM 50.2 °F - 50.2 °F 100% 30.04 in 5.0 mi SW 11.5 mph 16.1 mph N/A   Overcast
2:35 PM 50.2 °F - 50.2 °F 100% 30.04 in 7.0 mi SW 11.5 mph - N/A   Overcast
2:55 PM 52.7 °F - 52.7 °F 100% 30.03 in 7.0 mi SW 10.4 mph - N/A   Overcast
3:15 PM 51.1 °F - 51.1 °F 100% 30.04 in 7.0 mi SW 10.4 mph - N/A   Overcast
3:35 PM 51.1 °F - 51.1 °F 100% 30.05 in 5.0 mi SW 12.7 mph - N/A   Overcast
3:55 PM 52.7 °F - 52.7 °F 100% 30.04 in 5.0 mi SW 12.7 mph - N/A   Overcast
4:15 PM 52.7 °F - 52.7 °F 100% 30.05 in 7.0 mi SW 13.8 mph - N/A   Overcast
4:35 PM 52.7 °F - 52.7 °F 100% 30.05 in 7.0 mi SW 11.5 mph 20.7 mph N/A   Overcast
4:55 PM 52.7 °F - 52.7 °F 100% 30.05 in 7.0 mi SSW 10.4 mph 19.6 mph N/A   Overcast
5:15 PM 52.7 °F - 52.7 °F 100% 30.05 in 7.0 mi SW 10.4 mph 17.3 mph N/A   Overcast
5:35 PM 52.7 °F - 52.7 °F 100% 30.06 in 7.0 mi SW 10.4 mph - N/A   Overcast
5:55 PM 52.7 °F - 52.7 °F 100% 30.06 in 7.0 mi SW 8.1 mph 16.1 mph N/A   Overcast
6:15 PM 52.7 °F - 52.7 °F 100% 30.06 in 7.0 mi SSW 9.2 mph - N/A   Overcast
6:35 PM 52.7 °F - 52.7 °F 100% 30.06 in 7.0 mi SW 10.4 mph - N/A   Overcast
6:55 PM 52.7 °F - 52.7 °F 100% 30.06 in 7.0 mi SW 9.2 mph - N/A   Overcast
7:15 PM 52.7 °F - 52.7 °F 100% 30.07 in 7.0 mi SSW 8.1 mph - N/A   Overcast
7:35 PM 52.7 °F - 52.7 °F 100% 30.07 in 7.0 mi SW 6.9 mph - N/A   Overcast
7:55 PM 52.7 °F - 52.7 °F 100% 30.08 in 5.0 mi SW 6.9 mph - N/A   Drizzle
8:15 PM 52.7 °F - 52.7 °F 100% 30.07 in 5.0 mi SSW 8.1 mph - N/A Rain Light Rain
8:35 PM 52.7 °F - 52.7 °F 100% 30.07 in 3.0 mi SSW 5.8 mph - N/A   Overcast
8:55 PM 52.7 °F - 52.7 °F 100% 30.07 in 2.5 mi SSW 8.1 mph - N/A   Overcast
9:15 PM 52.7 °F - 52.7 °F 100% 30.07 in 2.5 mi SSW 5.8 mph - N/A   Overcast
9:35 PM 52.7 °F - 52.7 °F 100% 30.07 in 2.5 mi SSW 6.9 mph - N/A   Overcast
9:55 PM 52.7 °F - 52.7 °F 100% 30.07 in 2.5 mi SSW 6.9 mph - N/A   Overcast
10:15 PM 52.7 °F - 52.7 °F 100% 30.06 in 2.5 mi SSW 5.8 mph - N/A   Overcast
10:35 PM 52.7 °F - 52.7 °F 100% 30.06 in 2.5 mi SSW 5.8 mph - N/A   Overcast
10:55 PM 52.7 °F - 52.7 °F 100% 30.06 in 2.0 mi SW 5.8 mph - N/A   Overcast
11:15 PM 52.7 °F - 52.7 °F 100% 30.06 in 2.5 mi SW 4.6 mph - N/A   Overcast
11:35 PM 52.7 °F - 52.7 °F 100% 30.06 in 3.0 mi SSW 5.8 mph - N/A   Overcast
11:55 PM 52.7 °F - 52.7 °F 100% 30.06 in 3.0 mi SSW 4.6 mph - N/A   Overcast